Overview Statistics Trail Chart Weather Telemetry Raw packets
 

This is the latest recevied weather packets stored in our database for station/object OE6JUE. If no packets are shown the sender has not sent any weather packets the latest 10 day(s).

<< 34 35 36 37 38 39 40 >>
Time Temp. Humidity Pressure Rain* Wind** Luminosity Snow
1788457282 21.67° C 68% 1020.4 hPa 0 mm - - -
1788456982 21.67° C 68% 1020.4 hPa 0 mm - - -
1788456682 22.22° C 66% 1020.5 hPa 0 mm - - -
1788456406 22.22° C 65% 1020.4 hPa 0 mm - - -
1788456082 22.22° C 63% 1020.6 hPa 0 mm - - -
1788455782 22.78° C 58% 1020.5 hPa 0 mm - - -
1788455482 23.33° C 57% 1020.5 hPa 0 mm - - -
1788455182 23.33° C 56% 1020.4 hPa 0 mm - - -
1788454883 23.89° C 55% 1020.4 hPa 85.85 mm - - -
1788454582 23.89° C 54% 1020.4 hPa 0 mm - - -
1788454282 24.44° C 52% 1020.3 hPa 0 mm - - -
1788453982 25° C 51% 1020.2 hPa 0 mm - - -
1788453682 25° C 50% 1020.1 hPa 0 mm - - -
1788453409 25.56° C 49% 1020.4 hPa 0 mm - - -
1788453082 25.56° C 46% 1020.3 hPa 0 mm - - -
1788452782 26.11° C 44% 1020.2 hPa 0 mm - - -
1788452482 26.11° C 44% 1020.2 hPa 0 mm - - -
1788452182 26.67° C 41% 1020.2 hPa 0 mm - - -
1788451882 27.78° C 38% 1020.2 hPa 0 mm - - -
1788451582 27.78° C 38% 1020.2 hPa 0 mm - - -
1788451282 28.89° C 33% 1020.1 hPa 85.85 mm - - -
1788450982 30° C 31% 1020.1 hPa 0 mm - - -
1788450681 31.67° C 30% 1020.2 hPa 0 mm - - -
1788450382 31.67° C 33% 1020.2 hPa 0 mm - - -
1788450082 31.11° C 31% 1020.2 hPa 0 mm - - -

* Rain latest hour (hover to see other rain measurements)
** Current wind speed in m/s (hover to see current wind gust speed)